E-KAGAKU-1

导读

E-KAGAKU-1卫星于1998年11月20日发射,依托国际空间站(ISS)部署入轨。作为科学实验类微小卫星,它承载空间科学观测任务,推动相关领域技术验证与数据积累。该卫星的成功发射,为后续微小卫星在空间站平台的应用探索积累了宝贵经验,是国际空间科学合作进程中一次具有实践意义的技术尝试。

Basic Information
目录编号:
65942
目录名称:
E-KAGAKU-1
国际标识:
1998-067XP
轨道中心:
EARTH
卫星名称:
E-KAGAKU-1
卫星全名:
E-KAGAKU-1
卫星状态:
已陨落 最后检测时间 2026-03-04
发射日期:
1998-11-20 UTC
国别 :
日本 (JP)
星等 :
--
Orbit Information
数据来源 国际轨道数据
星历时间: 2026-03-03T15:18:11+0800
轨道信息已过期132天
半长轴: 6581.273km
偏心率: 0.0002926
轨道倾角: 51.604°
近地点辐角 46.928°
升交点赤经 82.560°
平近点角 313.198°
近地点: 201.21km
远地点: 205.062km
周期: 88.557分钟
每日圈数: 16.260651
Detailed Information
使用方式:
暂无